[[{"header":{"parameterUnit":"m.s-1","parameterCategory":1,"la1":30.2991,"la2":30.254,"lo1":-89.0895,"lo2":-89.0444,"dy":0.0017,"dx":0.0017,"nx":28,"ny":28,"refTime":"2024-07-14T09:00:00:Z","depth":0,"parameterNumber":2,"parameterNumberName":"U-component_of_WINDS"},"data":[0,0,0,0,0,0,0,0,0,0,0,0,0,0,0,0,0,0,0,0,0,0,0,0,0,0,0,0,0,0,0,0,0,0,0,0,0,0,0,0,0,0,0,0,0,0,0,0,0,0,0,0,0,0,0,0,0,0,4.5688,4.569,0,4.5844,4.5846,4.5848,4.5827,4.5824,4.5822,4.5819,4.5976,4.5982,4.5989,0,0,0,0,0,0,0,0,0,0,0,0,0,4.5367,4.5373,4.5688,4.569,4.5692,4.5844,4.5846,4.5848,4.5827,4.5824,4.5821,4.5818,4.5974,4.5981,4.5989,0,0,0,0,0,0,0,0,0,0,0,0,0,4.5513,4.5375,4.5688,4.57,4.5703,4.5844,4.5846,4.5849,4.5828,4.5824,4.582,4.5817,4.5971,4.5981,4.599,4.6128,0,0,4.602,4.6025,0,0,0,0,0,0,0,0,4.5504,4.5525,4.5696,4.5699,4.5703,4.5812,4.579,4.5942,4.5829,4.578,4.5819,4.5815,4.5924,4.5938,4.5975,4.6135,4.6142,4.6021,4.6027,4.6031,4.6034,0,0,0,0,0,0,0,4.5494,4.5518,4.575,4.5699,4.5703,4.5696,4.5712,4.5819,4.5872,4.5784,4.5783,4.5802,4.5925,4.5966,4.5979,4.6144,4.6021,4.603,4.6036,4.604,4.6421,4.6425,0,0,0,0,0,0,4.5482,4.5509,4.5745,4.5754,4.5592,4.5705,4.5723,4.5781,4.5871,4.5881,4.5805,4.58,4.5951,4.5967,4.5984,4.6148,4.6031,4.604,4.6046,4.6417,4.6422,4.6426,0,0,0,0,0,0,4.5475,4.5503,4.5738,4.5632,4.5661,4.5714,4.5779,4.5786,4.5827,4.5886,4.5895,4.5837,4.5949,4.597,4.6092,4.6153,4.6045,4.6054,4.6412,4.6418,4.6424,4.6479,0,0,0,0,0,0,4.5466,4.5501,4.5555,4.5633,4.5667,4.5845,4.5783,4.5792,4.5844,4.5839,4.5919,4.5928,4.5947,4.6077,4.6101,4.6165,4.6062,4.6406,4.6415,4.6422,4.6472,4.6486,4.6499,0,0,0,0,0,4.5454,4.5564,4.5558,4.5586,4.5736,4.5849,4.5868,4.5888,4.5849,4.5903,4.5941,4.5926,4.6143,4.609,4.6117,4.6184,4.6402,4.6412,4.6421,4.6466,4.6483,4.6498,0,0,0,0,0,0,4.5491,4.5575,4.5568,4.5707,4.5771,4.5845,4.5913,4.5907,4.5982,4.5975,4.5996,4.6014,4.6136,4.6173,4.6112,4.632,4.6267,4.6283,4.6291,4.6309,4.6322,4.6309,4.607,0,0,0,0,0,4.5515,4.5601,4.5669,4.5785,4.5817,4.586,4.591,4.592,4.5987,4.6013,4.606,4.6124,4.6206,4.626,4.634,4.6478,4.6493,4.6537,4.6551,4.6561,4.6573,4.6645,4.6665,4.6458,4.6458,4.6457,0,0,4.5566,4.5622,4.5675,4.5794,4.5844,4.593,4.5883,4.5977,4.604,4.6027,4.6144,4.6181,4.6253,4.6382,4.6442,4.6417,4.6634,4.6574,4.6582,4.6588,4.6657,4.6677,4.6694,4.6464,4.6463,4.6462,0,0,4.5702,4.5755,4.5855,4.5907,4.5984,4.6012,4.6036,4.6111,4.6135,4.6253,4.6243,4.6319,4.6461,4.6512,4.6556,4.671,4.6697,4.6735,4.6805,4.6874,4.6891,4.6905,4.6956,4.6975,4.6748,4.6748,4.6748,0,4.5755,4.5886,4.5908,4.6002,4.6053,4.6046,4.6146,4.6195,4.6294,4.6328,4.6299,4.6475,4.6524,4.6663,4.67,4.6738,4.6764,4.6725,4.6887,4.6902,4.6915,4.6964,4.6984,4.6752,4.6751,4.6751,4.6751,0,4.5945,4.6036,4.6107,4.6203,4.6262,4.6359,4.6393,4.6451,4.6455,4.6485,4.6603,4.6661,4.6751,4.6785,4.6791,4.6925,4.6906,4.6882,4.6829,4.6939,4.6984,4.7004,4.6757,4.6756,4.6755,4.6754,0,0,4.6107,4.6213,4.6239,4.628,4.6365,4.6434,4.653,4.6618,4.6665,4.6733,4.6811,4.6931,4.6909,4.696,4.6971,4.7033,4.7146,4.7001,4.7003,4.7022,4.7292,4.7307,4.7328,4.7139,4.7143,4.7146,4.7284,0,4.6248,4.6418,4.6439,4.6589,4.6671,4.6665,4.6747,4.6807,4.6837,4.691,4.6942,4.7026,4.6992,4.7022,4.7083,4.7119,4.7199,4.711,4.7209,4.7212,4.7187,4.7353,4.737,4.7497,4.7303,4.7306,4.7308,0,4.6436,4.6509,4.6666,4.6737,4.6772,4.6846,4.6927,4.6998,4.7064,4.7081,4.7137,4.714,4.7236,4.7181,4.7311,4.7249,4.7291,4.7315,4.7321,4.7328,4.7264,4.7361,4.7539,4.7557,4.7338,4.7335,4.7333,0,4.6533,4.6671,4.6783,4.6819,4.6905,4.6957,4.6995,4.7057,4.7108,4.7178,4.7211,4.7292,4.7335,4.7396,4.742,4.7378,4.7548,4.7495,4.7562,4.7561,4.7595,4.7592,4.7779,4.7629,4.7628,4.7628,4.7627,0,4.6686,4.6782,4.6827,4.6895,4.7001,4.7025,4.7128,4.7164,4.722,4.7293,4.7293,4.7361,4.739,4.7463,4.7482,4.7585,4.7605,4.762,4.7623,4.7618,4.7615,4.7643,4.7633,4.7633,4.7632,4.7631,4.763,0,4.6812,4.6847,4.6967,4.7038,4.7058,4.7133,4.7193,4.7257,4.7287,4.7379,4.7402,4.7447,4.7532,4.7563,4.7666,4.7679,4.7797,4.7795,4.7774,4.7774,4.7837,4.7829,4.8045,4.8073,4.7908,4.791,4.7911,0,4.6905,4.6979,4.7058,4.7107,4.7147,4.7227,4.7278,4.7303,4.7356,4.7436,4.749,4.7575,4.7643,4.7779,4.782,4.7898,4.7895,4.7966,4.7907,4.7898,4.7891,4.7885,4.7891,4.7975,4.7977,4.7978,4.7979,0,4.7067,4.708,4.7154,4.7235,4.7296,4.7361,4.7423,4.7463,4.7497,4.7556,4.7643,4.7696,4.7801,4.7884,4.7964,4.8,4.7994,4.7998,4.8017,4.801,4.7994,4.7999,4.78,4.7992,4.7991,4.799,4.7989,4.7989,4.7177,4.724,4.7305,4.7387,4.7437,4.7494,4.7557,4.7595,4.7668,4.7755,4.7766,4.7858,4.792,4.8027,4.8067,4.8138,4.8119,4.8147,4.8153,4.8159,4.8161,4.7986,4.8153,4.8153,4.8153,4.8152,4.8152,0,4.7334,4.7375,4.7451,4.7538,4.7602,4.7593,4.7661,4.7714,4.7796,4.7855,4.7922,4.802,4.81,4.8147,4.8226,4.8274,4.8273,4.8293,4.8288,4.8296,4.8176,4.815,4.8292,4.8292,4.8292,4.8292,4.8292,4.8292,4.7423,4.7529,4.755,4.7679,4.7719,4.781,4.7849,4.7901,4.7948,4.8058,4.8124,4.8155,4.8208,4.8291,4.8362,4.8374,4.8401,4.8423,4.8432,4.8319,4.8305,4.8291,4.8266,4.843,4.843,4.8545,4.8546,4.8547]},{"header":{"parameterUnit":"m.s-1","parameterCategory":1,"la1":30.2991,"la2":30.254,"lo1":-89.0895,"lo2":-89.0444,"dy":0.0017,"dx":0.0017,"nx":28,"ny":28,"refTime":"2024-07-14T09:00:00:Z","depth":0,"parameterNumber":3,"parameterNumberName":"V-component_of_WINDS"},"data":[0,0,0,0,0,0,0,0,0,0,0,0,0,0,0,0,0,0,0,0,0,0,0,0,0,0,0,0,0,0,0,0,0,0,0,0,0,0,0,0,0,0,0,0,0,0,0,0,0,0,0,0,0,0,0,0,0,0,3.2432,3.2433,0,3.2512,3.2512,3.2513,3.2483,3.2481,3.2479,3.2478,3.2561,3.2565,3.2569,0,0,0,0,0,0,0,0,0,0,0,0,0,3.2255,3.2258,3.2432,3.2433,3.2434,3.2511,3.2512,3.2514,3.2483,3.2481,3.2479,3.2477,3.256,3.2565,3.257,0,0,0,0,0,0,0,0,0,0,0,0,0,3.2333,3.2259,3.2432,3.2428,3.2429,3.2511,3.2513,3.2514,3.2484,3.2481,3.2478,3.2476,3.2559,3.2564,3.257,3.2662,0,0,3.2588,3.2591,0,0,0,0,0,0,0,0,3.2329,3.234,3.2428,3.2429,3.2429,3.2484,3.2481,3.2564,3.2485,3.2463,3.2478,3.2474,3.2538,3.2546,3.2567,3.2666,3.2669,3.2589,3.2592,3.2595,3.2597,0,0,0,0,0,0,0,3.2323,3.2336,3.2464,3.2429,3.243,3.2423,3.2431,3.2496,3.2515,3.2465,3.2463,3.2472,3.2538,3.2561,3.2568,3.2671,3.2589,3.2594,3.2598,3.26,3.2847,3.2849,0,0,0,0,0,0,3.2317,3.2332,3.2461,3.2466,3.2371,3.2428,3.2437,3.247,3.2514,3.2518,3.2475,3.2471,3.2552,3.2562,3.2571,3.268,3.2595,3.26,3.2604,3.2844,3.2847,3.285,0,0,0,0,0,0,3.2314,3.2329,3.2458,3.2398,3.2414,3.2434,3.2471,3.2473,3.2495,3.2522,3.2525,3.2494,3.2551,3.2563,3.2639,3.2683,3.2603,3.2608,3.284,3.2845,3.2849,3.2899,0,0,0,0,0,0,3.2309,3.2328,3.2363,3.2399,3.2417,3.2524,3.2474,3.2476,3.2505,3.2501,3.2541,3.2545,3.2549,3.263,3.2645,3.2689,3.2613,3.2836,3.2842,3.2847,3.2894,3.2905,3.2915,0,0,0,0,0,3.2302,3.2375,3.2365,3.2381,3.2461,3.2527,3.2537,3.2539,3.2509,3.2544,3.2561,3.2544,3.2675,3.2638,3.2654,3.2701,3.2833,3.284,3.2847,3.2889,3.2903,3.2914,0,0,0,0,0,0,3.2345,3.238,3.2369,3.2456,3.2488,3.2521,3.2566,3.2554,3.2597,3.2591,3.2592,3.2602,3.268,3.2698,3.2656,3.2791,3.275,3.276,3.2777,3.279,3.28,3.2794,3.2618,0,0,0,0,0,3.2364,3.2414,3.2442,3.2515,3.2532,3.2546,3.2575,3.2573,3.2608,3.2622,3.2644,3.2678,3.2727,3.2759,3.2806,3.2896,3.2904,3.2936,3.2947,3.2955,3.2964,3.3012,3.3026,3.2873,3.2873,3.2872,0,0,3.2405,3.243,3.2462,3.2524,3.255,3.2601,3.2558,3.2615,3.2653,3.2631,3.2703,3.2721,3.2759,3.2842,3.288,3.286,3.3008,3.2964,3.297,3.2975,3.302,3.3034,3.3047,3.2877,3.2876,3.2876,0,0,3.2505,3.2529,3.2592,3.2618,3.2656,3.2664,3.268,3.2714,3.2725,3.2797,3.2781,3.2826,3.2911,3.2938,3.2963,3.3071,3.3057,3.3086,3.3141,3.3187,3.3199,3.321,3.3247,3.3261,3.3095,3.3095,3.3095,0,3.2551,3.2627,3.2627,3.2684,3.2712,3.2692,3.2756,3.2781,3.2833,3.2852,3.2829,3.2933,3.2957,3.3046,3.3072,3.3093,3.311,3.3082,3.3197,3.3208,3.3218,3.3254,3.3268,3.3098,3.3098,3.3098,3.3097,0,3.2681,3.2734,3.2781,3.2829,3.2862,3.2923,3.2931,3.2964,3.296,3.2971,3.3044,3.3072,3.3123,3.3144,3.3141,3.3232,3.3218,3.3196,3.3154,3.3236,3.3269,3.3283,3.3103,3.3102,3.3101,3.31,0,0,3.2812,3.2858,3.2875,3.2896,3.2935,3.2976,3.3035,3.3084,3.3112,3.3148,3.3197,3.3268,3.3247,3.3275,3.3274,3.3315,3.3397,3.3288,3.3289,3.3307,3.3498,3.3514,3.353,3.3388,3.339,3.3393,3.3494,0,3.2915,3.3017,3.3017,3.3112,3.316,3.3141,3.3192,3.3222,3.3233,3.3276,3.3289,3.3338,3.3307,3.3324,3.3363,3.3379,3.3436,3.3372,3.3434,3.3436,3.3424,3.3548,3.3566,3.366,3.3508,3.351,3.3512,0,3.3049,3.3087,3.3186,3.3216,3.3236,3.3282,3.3326,3.3367,3.34,3.3405,3.3435,3.3428,3.3488,3.3444,3.3526,3.3482,3.3507,3.3518,3.3522,3.3528,3.3479,3.3557,3.3691,3.3705,3.3533,3.3531,3.3529,0,3.3133,3.3209,3.3278,3.3296,3.3334,3.3366,3.3384,3.3413,3.3442,3.348,3.3499,3.3544,3.3569,3.3604,3.3609,3.3576,3.369,3.3647,3.3696,3.3696,3.3722,3.372,3.3861,3.3738,3.3738,3.3738,3.3738,0,3.3247,3.3308,3.3316,3.3358,3.3425,3.3424,3.3491,3.3506,3.3532,3.3577,3.3564,3.3606,3.361,3.3653,3.3657,3.3724,3.3735,3.3741,3.3742,3.3742,3.3741,3.3759,3.3752,3.3742,3.3741,3.374,3.3739,0,3.3353,3.336,3.3434,3.3462,3.3471,3.3519,3.3544,3.3584,3.3593,3.3649,3.3663,3.3678,3.3728,3.3736,3.3795,3.3798,3.3877,3.3871,3.3866,3.3865,3.3913,3.3908,3.4071,3.4091,3.3955,3.3956,3.3958,0,3.3425,3.3472,3.3504,3.3533,3.3551,3.3597,3.3625,3.3626,3.3656,3.3696,3.3731,3.378,3.3819,3.39,3.3916,3.3961,3.3955,3.4009,3.3962,3.3961,3.3955,3.3952,3.3957,3.4018,3.402,3.4021,3.4022,0,3.3553,3.3554,3.3595,3.3637,3.367,3.3704,3.3736,3.376,3.3764,3.3799,3.3849,3.3879,3.3938,3.3987,3.4031,3.4049,3.4036,3.4036,3.405,3.4051,3.4046,3.4048,3.389,3.4033,3.4032,3.4031,3.403,3.403,3.3644,3.3683,3.3712,3.3758,3.3781,3.381,3.3848,3.3861,3.3903,3.3951,3.3949,3.4004,3.4034,3.4092,3.4113,3.4156,3.4138,3.4159,3.4164,3.4168,3.4173,3.4039,3.4164,3.4164,3.4163,3.4163,3.4163,0,3.377,3.3787,3.3829,3.3872,3.3908,3.3891,3.3925,3.3956,3.4004,3.4033,3.4071,3.4128,3.4174,3.4193,3.4238,3.4269,3.4264,3.4281,3.4278,3.4283,3.4186,3.4169,3.4284,3.4284,3.4284,3.4284,3.4284,3.4283,3.3839,3.3905,3.3909,3.3985,3.4002,3.4054,3.4075,3.4101,3.4124,3.4188,3.4226,3.4237,3.4262,3.4308,3.435,3.4354,3.4371,3.439,3.4392,3.4302,3.429,3.4278,3.4262,3.4394,3.4394,3.4485,3.4486,3.4487]}]]